Commit graph

242 commits

Author SHA1 Message Date
c2bd5d008f posts: ugly_keyboards: add images 2026-03-09 03:15:37 +01:00
127edcfec6 posts: ugly_keyboards: update draft 2026-03-09 03:15:37 +01:00
f3c81faae5 posts: ugly_keyboards: update draft 2026-03-09 03:15:37 +01:00
4ed2b85b5e posts: ugly_keyboards: update draft 2026-03-09 03:15:37 +01:00
2b5674a45c posts: ugly_keyboards: touch typing 2026-03-09 03:15:37 +01:00
b538437b33 posts: ugly_keyboards: update draft 2026-03-09 03:15:37 +01:00
921cff336c posts: ugly_keyboards: initial draft 2026-03-09 03:15:37 +01:00
c11b2ade74 posts: ugly_keyboards: add images 2026-03-09 03:15:37 +01:00
938032c3ab lost+found: No Vehicles in the Park 2025-09-30 12:31:54 +02:00
5daa29f568 lost+found: No Vehicles in the Park 2025-09-30 12:15:40 +02:00
3f9dd7c73c lost+found: add Dead Drops 2025-09-03 23:28:23 +02:00
678d596701 pages: add qr with link 2025-09-01 03:12:40 +02:00
fd796c82a4 Update titles 2025-08-31 02:28:56 +02:00
e369ebe52c css: scroll-margin-top for headers 2025-08-31 01:27:30 +02:00
6bd1b011f5 Update titles 2025-08-31 01:22:29 +02:00
d85b35b77c about: update contacts 2025-08-31 00:54:47 +02:00
a35b0b05c9 posts: RSS link 2025-08-31 00:48:48 +02:00
6bb56d493b lost+found: add FreeSewing 2025-08-23 19:09:49 +02:00
0c2b6524d9 posts: lint 2025-08-23 17:32:53 +02:00
23ae2029f1 lost+found: lint 2025-08-23 17:30:26 +02:00
844ece8a90 css: apply styles for entries 2025-08-23 17:23:07 +02:00
8a292009ae projects: apply common styles 2025-08-23 14:42:16 +02:00
e36d5d911c css: add entries 2025-08-23 14:40:01 +02:00
099430b62e projects: linting 2025-08-23 08:02:39 +02:00
856fd24869 projects: linting 2025-08-23 07:59:41 +02:00
bccd7b3ef5 projects: update markup 2025-08-23 07:53:38 +02:00
39de9a3477 projects: add ddp and simpleSpaceApi 2025-08-23 07:37:07 +02:00
b79f8f286e lost+found: EOL.date and Atlas Obscura 2025-08-22 07:02:10 +02:00
9a158f45fe css: add right padding for code and quotes 2025-08-22 06:59:12 +02:00
a14a911057 lost+found: shuffle the list a bit 2025-05-16 15:13:41 +02:00
16c67e98ee lost+found: new item 2025-05-16 15:02:45 +02:00
47c7fcc7ec lost+found: new item 2025-05-16 14:52:33 +02:00
242c3dfaca lost+found: new item 2025-05-16 14:36:34 +02:00
2d1188a838 lost+found: new item 2025-05-16 14:28:53 +02:00
609c887c80 lost+found: new item 2025-05-16 14:22:10 +02:00
b7167eee76 lost+found: trailing spaces 2025-05-09 12:15:46 +02:00
ec178cbea2 lost+found: update description 2025-05-09 12:13:24 +02:00
4f3aa1252d lost+found: typograf 2025-05-09 11:22:42 +02:00
5107b160f9 lost+found: draft 2025-05-09 10:31:40 +02:00
4567ff258b convention: period in the descriptions 2025-05-08 06:02:56 +02:00
96a1b486f3 md-test: update 2025-05-08 05:43:37 +02:00
ca00dcd0b5 posts: selfhosted_llm: update 2025-05-08 05:38:30 +02:00
11412895f2 posts: selfhosted_llm: update 2025-05-08 05:35:25 +02:00
8a1bc55f86 css: mobile tables 2025-05-08 05:10:32 +02:00
8790fa9021 css: outline for links 2025-05-08 04:29:01 +02:00
a008fc14d6 projects: add cantor mx 2024-09-04 23:01:13 +02:00
61a276b7fd projects: add desolate-gtk 2024-08-12 21:58:01 +02:00
6d67d3987a projects: fixup hr position 2024-08-05 06:08:05 +02:00
3aba700e3f templates: merge styles and fonts partials 2024-08-04 23:19:35 +02:00
6829779532 fonts: another aproach 2024-08-04 23:12:25 +02:00